Погода в Ужовке

Россия / Нижегородская область     54°47′38″N   44°54′14″E
темп.,
°C
ветер,
м/с
пор.,
м/с
влажн.,
%
обл.,
%
осадки,
мм/ч
давл.,
гПа
погр.,
м
18 мая, вт
вт1800:00+19вюв226287 0.0 101518
03:00+16вюв33666 0.0 101628
06:00+18вюв35625 0.0 1015106
09:00+24вюв46465 0.0 1015455
12:00+28юв57325 0.0 10141128
15:00+29вюв58361 0.0 10141499
18:00+25вюв510510 0.0 1013261
21:00+20в48633 0.0 1013106
19 мая, ср
ср1900:00+18в414555 0.0 1013248
03:00+16в413654 0.0 1013221
06:00+18вюв4146868 0.0 1014372
09:00+22вюв6105833 0.0 1013520
12:00+27вюв710463 0.0 10131041
15:00+27вюв811490 0.0 10121517
18:00+24вюв713580 0.0 1012707
21:00+21вюв616630 0.0 1013610
20 мая, чт
чт2000:00+18в516682 0.1 1012412
03:00+17вюв514653 0.1 1012444
06:00+18юв5147326 0.0 1012715
09:00+21юв696213 0.0 1011893
12:00+24ююв7955100 0.1 10111842
15:00+22ю696488 2.3 10121349
18:00+20ю3673100 1.0 1012438
21:00+15ююв348183 1.1 101290
21 мая, пт
пт2100:00+14ю228584 0.1 101215
03:00+13ю2290100 0.1 101222
06:00+14ююз3687100 0.0 1012235
09:00+18ююз456826 0.0 10121025
12:00+19зюз676799 0.8 10121333
15:00+18зюз586643 0.9 1013976
18:00+17зюз586916 0.1 10131154
21:00+14зюз4107998 0.1 1015357
22 мая, сб
сб2200:00+11зюз399196 0.0 1017280
03:00+10зюз3697100 0.0 1018161
06:00+12з2490100 0.0 1019218
09:00+15з3476100 0.0 1020573
12:00+17зсз2367100 0.1 1020863
15:00+14с2392100 1.6 1021118
18:00+13всв3495100 2.6 1021227
21:00+12в2499100 14.3 1021158